GFSNGP_sfc_wetblb_159.txt.gz
Wetbulb
50.11 51.45 51.35 50.42 49.95 50.03 49.88 51.17 48.88 51.49 51.47 55.82 59.93 60.29 62.01 63.71 64.40 64.13 65.14 66.34 67.33 68.23 69.71 70.57 71.12 71.59 72.34 73.37 74.42 75.63 75.55 75.87 76.08 75.16 74.81 73.87 71.80 72.06 71.16 70.06 68.59 68.14 67.95 69.39
47.87 49.77 49.67 48.68 50.32 50.85 50.59 51.39 51.11 51.91 52.63 58.49 61.49 59.61 59.97 61.74 63.29 64.56 66.26 66.49 67.24 68.08 68.90 69.93 71.04 71.64 72.47 73.72 74.99 76.05 75.63 74.82 75.07 74.55 72.85 71.75 71.34 70.99 70.84 69.41 68.05 67.67 68.71 68.59
46.16 49.78 49.16 45.15 49.11 50.43 51.23 52.41 52.14 49.86 54.48 58.70 57.48 58.14 60.31 63.28 63.22 64.60 66.34 67.08 67.31 67.79 68.55 70.01 71.37 72.60 72.85 74.17 75.05 74.87 74.89 74.59 73.48 71.94 70.87 70.92 71.09 69.73 68.53 67.22 67.27 67.71 68.28 68.36
47.15 48.32 41.42 51.05 55.06 53.34 52.03 53.04 54.20 55.20 57.65 59.58 60.58 62.31 61.95 63.69 64.22 65.47 66.46 67.79 68.05 68.36 69.19 70.66 72.15 73.26 74.42 74.15 73.64 73.86 73.21 72.42 71.87 71.08 70.54 70.13 68.87 67.91 67.40 67.01 66.54 67.17 68.14 68.38
44.69 45.59 49.63 50.97 51.88 51.94 51.25 51.69 55.38 55.60 57.66 58.09 59.45 59.17 60.84 62.52 63.85 65.71 67.19 68.91 69.62 69.83 70.16 70.34 71.07 73.04 73.17 72.81 72.77 72.43 72.01 71.82 71.47 71.32 70.31 68.98 67.90 67.60 67.43 66.64 67.07 67.78 68.48 67.76
45.34 43.51 42.87 51.69 55.73 55.69 56.48 50.23 58.25 58.15 57.95 58.11 59.27 54.86 59.48 64.04 63.57 66.43 69.14 69.76 69.14 69.74 70.10 70.39 70.79 72.16 71.78 71.22 71.22 71.30 71.37 71.59 71.23 70.93 69.94 69.05 68.91 68.18 67.47 67.54 67.59 67.74 67.56 67.13
44.79 44.45 49.35 55.14 58.35 57.61 49.24 53.42 60.93 59.47 59.68 59.60 58.36 61.35 63.94 63.68 65.74 67.62 67.78 68.17 69.76 70.01 69.89 70.03 70.90 71.41 70.58 70.09 70.31 70.78 70.61 70.63 70.41 70.44 70.48 70.12 69.05 68.09 67.45 67.36 67.68 67.42 66.59 66.81
46.07 44.30 43.40 59.38 57.95 53.40 59.66 60.78 59.44 60.14 60.73 61.36 62.08 62.29 63.24 64.47 65.48 66.32 66.84 67.99 68.93 68.99 68.94 69.48 70.32 70.38 69.63 69.70 69.87 70.27 70.11 69.60 69.80 70.12 69.59 68.74 68.16 67.14 67.25 67.29 67.28 66.79 66.48 65.06
50.78 49.42 57.54 59.79 60.28 60.76 59.76 61.20 60.71 60.93 61.62 62.86 61.97 62.18 62.95 62.96 64.29 65.63 66.59 67.08 68.74 68.91 68.82 69.35 70.47 71.32 69.74 68.57 68.98 67.71 67.56 68.06 68.85 69.91 69.04 68.12 67.32 66.40 65.63 66.71 65.65 65.61 65.06 64.69
53.25 56.78 56.99 56.83 58.84 60.50 61.30 61.56 62.34 63.15 62.65 62.41 60.58 60.88 59.77 59.39 59.42 59.72 60.22 60.25 61.32 61.62 61.73 63.46 67.04 68.20 68.35 67.21 68.31 67.70 67.62 67.56 67.96 68.14 66.73 66.56 66.23 66.08 65.66 65.37 65.92 66.66 63.59 63.87
54.50 53.66 55.97 56.67 58.92 61.08 62.00 62.31 61.64 62.17 61.47 60.02 59.41 57.95 57.90 58.00 59.31 59.41 60.49 60.73 61.31 61.77 62.29 62.61 64.37 66.22 67.91 67.51 67.72 67.69 67.54 67.16 66.88 65.02 65.09 65.66 65.00 64.28 65.78 65.20 62.08 63.70 62.30 62.79
53.51 57.14 59.69 57.99 60.10 61.53 60.60 60.23 61.06 59.73 57.68 58.26 58.51 57.96 58.72 58.64 59.90 60.13 59.95 61.35 61.53 62.26 62.34 62.71 63.60 64.62 66.06 66.77 68.17 67.86 66.76 65.55 64.25 63.08 62.93 62.36 61.74 56.70 49.46 49.54 48.25 46.44 44.59 55.66
56.47 58.87 58.54 58.38 60.42 61.36 59.56 59.78 59.93 58.29 58.11 57.25 58.62 59.02 59.16 58.67 59.80 57.18 60.21 60.52 60.86 60.87 61.53 62.46 63.06 62.20 63.37 64.78 65.95 65.51 65.60 65.12 63.09 61.47 60.75 60.82 59.93 60.86 59.56 53.39 45.02 43.71 43.03 43.63
56.94 57.22 54.85 56.89 56.11 58.79 58.35 57.90 57.99 58.97 58.92 58.71 58.93 59.20 58.47 58.96 57.68 59.63 59.35 58.99 59.05 59.95 60.53 60.09 61.27 62.34 63.97 64.60 65.04 65.36 64.95 56.09 64.27 63.21 62.19 60.16 60.84 61.30 60.89 59.39 58.84 54.50 44.45 46.78
56.74 57.87 55.45 56.79 56.71 56.44 57.40 57.58 56.49 56.20 57.06 57.19 57.92 57.65 55.41 55.81 57.40 57.87 58.34 59.47 58.89 58.84 60.47 61.90 62.81 64.40 65.56 65.36 65.00 65.02 65.21 64.51 64.25 63.58 62.93 60.95 60.76 61.39 61.50 60.85 59.47 54.69 52.27 48.33
55.16 55.87 55.38 55.52 55.14 55.86 55.99 56.08 55.03 55.25 56.19 56.22 56.57 56.94 56.81 58.31 58.45 57.60 56.79 59.09 59.42 59.06 61.18 62.66 64.07 64.07 65.57 65.64 64.93 64.73 63.79 59.35 60.24 63.70 62.49 62.37 62.28 61.83 60.88 60.37 58.78 54.91 53.86 53.79
53.90 53.32 54.34 54.51 55.00 55.76 55.76 57.05 57.38 57.62 57.84 58.12 58.34 58.54 58.74 58.95 58.78 58.09 57.77 59.76 61.19 62.14 63.60 64.51 64.06 64.83 64.62 64.80 64.75 64.75 64.39 63.44 59.61 63.67 63.62 62.77 62.33 61.64 60.69 60.27 58.92 56.09 55.08 54.59
56.33 57.27 58.03 57.58 57.30 57.37 57.65 58.11 58.69 59.06 58.78 59.43 58.97 59.18 59.15 58.90 59.10 59.10 59.43 60.17 61.92 62.91 63.75 63.64 63.35 63.07 62.79 62.66 62.59 62.56 62.58 62.86 62.55 62.69 62.19 61.73 61.64 61.25 60.30 59.75 59.19 56.76 56.18 52.82
57.10 56.93 57.42 57.79 58.69 58.56 58.24 58.29 58.71 59.14 59.69 59.13 59.60 59.93 60.33 60.33 59.71 60.24 61.53 62.00 62.40 62.52 62.36 62.52 57.23 59.80 60.47 59.30 60.90 62.05 61.71 61.14 60.87 61.28 61.71 57.25 60.75 60.47 59.54 59.06 58.76 58.39 56.39 53.63
56.64 57.39 57.49 57.54 58.05 57.95 56.92 57.42 57.92 58.07 58.63 59.19 59.39 59.26 59.43 59.68 60.73 59.71 61.37 61.39 62.08 62.31 62.43 61.51 61.81 61.84 61.62 60.15 58.11 61.40 61.25 61.67 61.61 61.18 61.04 60.76 60.49 60.15 59.59 54.59 57.09 55.44 53.12 51.91
55.67 55.95 55.59 55.42 54.99 55.44 55.26 56.14 56.64 56.68 57.59 58.18 57.98 58.15 58.87 60.09 61.08 61.44 60.52 59.48 60.28 60.12 62.07 58.43 60.89 61.23 61.54 60.51 60.75 61.63 61.22 60.87 61.04 61.04 60.36 60.39 59.50 60.57 58.92 56.61 56.28 51.77 50.72 49.01
55.35 54.74 54.59 54.44 54.02 53.30 53.75 54.88 55.68 56.03 56.04 56.19 57.86 58.74 59.15 58.49 59.55 60.07 60.95 60.97 60.13 53.57 59.95 61.05 61.13 56.27 59.31 56.42 61.61 61.40 60.68 60.43 59.93 60.04 59.82 59.85 59.78 58.73 53.05 54.50 54.29 51.43 51.55 51.43
54.08 53.43 54.20 54.14 53.62 53.36 54.01 54.13 54.69 55.19 54.57 54.87 56.69 58.56 58.73 58.77 59.92 59.38 57.95 59.70 61.15 55.73 60.35 60.34 54.19 53.18 53.36 60.69 61.11 60.94 60.87 60.02 60.16 60.10 59.11 57.29 57.40 54.29 51.75 51.67 48.23 47.99 49.26 51.24
54.12 53.28 52.54 53.30 54.28 54.51 53.58 53.80 54.64 55.33 55.05 54.85 55.19 57.24 57.69 55.65 54.52 54.45 56.01 53.30 49.07 54.13 58.63 57.28 54.27 51.09 52.83 58.88 57.00 56.88 56.98 57.40 58.43 57.97 52.77 46.59 50.24 53.45 56.47 54.42 53.32 52.21 51.60 49.96
54.54 54.18 53.93 54.04 52.81 51.71 52.91 54.09 55.16 55.26 55.16 54.62 53.73 54.37 54.14 53.09 55.33 57.77 58.93 57.75 48.36 54.35 58.14 47.60 48.15 48.96 58.48 58.64 58.88 57.20 57.23 56.13 57.76 56.34 53.68 52.58 51.34 50.24 52.31 54.36 53.11 51.67 51.22 51.23
54.90 54.72 55.36 55.90 55.72 55.70 54.94 54.15 52.08 52.14 53.92 51.62 50.51 50.35 50.48 54.19 50.71 55.24 57.42 53.28 55.02 49.88 56.12 55.70 55.33 53.32 53.20 55.75 55.85 56.95 57.05 54.92 53.65 54.37 53.16 53.59 53.70 53.39 53.13 52.80 51.73 51.52 51.50 50.84
55.80 50.73 57.23 56.66 56.85 56.89 56.94 56.37 56.19 55.20 53.15 52.94 53.20 53.43 51.97 51.19 51.25 51.59 48.30 50.98 53.00 53.45 53.50 54.07 53.72 49.85 52.46 55.09 54.63 54.54 54.76 54.96 50.19 54.00 53.62 53.28 53.45 53.14 52.77 52.28 52.16 51.64 51.20 50.95

GFSNGP_sfc_wetblb_162.txt.gz
Wetbulb
53.39 53.33 52.52 51.92 51.30 52.10 51.90 52.41 50.35 52.25 53.20 56.93 59.52 60.42 61.00 61.80 63.65 66.90 68.31 70.39 71.22 71.81 72.79 73.35 73.67 74.48 74.79 75.46 76.14 76.66 76.91 76.98 77.25 78.13 78.51 77.63 77.53 76.62 76.14 75.90 73.58 72.90 72.19 71.13
51.73 53.51 53.44 51.21 52.23 52.69 52.52 52.80 53.30 53.65 54.27 59.34 60.65 61.36 61.66 62.99 64.98 65.60 68.18 69.98 71.47 72.37 73.38 73.69 74.03 74.47 74.94 75.47 76.14 77.03 76.93 77.15 78.07 78.46 76.85 76.42 75.32 75.20 75.29 73.32 72.96 72.50 71.34 70.33
48.61 52.30 51.82 49.09 52.47 53.13 53.48 54.36 53.83 51.79 55.85 58.60 58.85 60.25 61.72 63.42 63.88 64.37 66.40 69.29 71.60 72.39 73.45 74.54 74.87 75.37 74.95 75.84 77.27 77.36 77.56 77.97 77.66 75.93 74.09 73.31 73.28 73.53 72.76 72.50 73.24 71.90 70.26 70.05
49.12 51.16 44.71 52.77 55.90 55.17 53.87 54.89 56.26 56.48 57.59 59.60 60.51 61.75 62.75 65.08 65.45 65.58 66.39 68.06 71.59 72.68 73.32 74.45 75.28 75.72 76.42 77.13 77.60 77.45 77.50 77.00 74.17 73.28 72.67 72.78 72.27 72.91 73.59 73.09 71.46 69.99 69.87 69.96
47.38 48.18 51.34 52.52 54.77 54.53 53.52 53.84 56.98 57.00 58.35 59.28 60.53 61.83 62.34 64.49 65.79 66.89 67.79 69.67 72.65 73.25 73.89 74.66 75.47 76.65 76.90 76.41 76.63 76.55 76.20 75.53 73.72 73.42 72.95 72.01 71.87 72.70 72.09 70.86 70.07 69.61 69.53 69.73
48.46 45.47 44.50 52.83 56.88 58.79 58.36 51.89 58.90 58.88 58.84 59.07 60.60 56.59 59.38 66.71 66.52 67.99 69.36 72.25 72.82 73.34 74.16 74.89 76.07 76.46 75.76 75.61 75.41 75.30 75.49 75.36 74.64 74.33 73.25 72.11 73.16 71.96 71.40 70.52 69.71 68.73 69.01 69.77
46.01 46.00 49.94 55.67 57.87 59.39 51.65 53.44 60.13 60.63 61.17 60.99 60.78 62.41 67.56 68.08 67.97 70.28 71.61 72.32 73.31 73.38 73.51 74.41 75.39 75.56 74.35 74.16 73.45 74.60 75.15 75.25 74.99 75.13 74.24 73.96 71.64 70.89 70.09 69.64 69.57 69.13 68.84 68.76
46.97 45.56 44.00 58.65 59.80 55.32 60.13 63.03 64.39 64.15 64.26 63.52 64.97 66.99 66.90 68.34 69.71 70.64 71.54 72.21 73.15 72.51 72.72 73.69 74.03 73.04 72.48 72.35 74.00 74.38 74.58 74.50 74.54 74.77 73.50 71.77 71.02 70.86 70.29 69.92 69.04 68.70 68.16 67.38
50.23 49.57 59.17 58.49 62.34 63.51 64.39 64.87 65.57 65.21 65.09 65.44 66.50 66.08 67.58 68.73 69.90 70.67 70.73 70.70 71.04 70.97 71.62 72.85 73.59 73.22 71.71 72.53 73.79 73.40 73.58 73.37 72.04 72.06 72.49 72.12 71.04 69.60 68.83 69.20 67.47 67.18 66.56 66.10
52.88 54.70 57.06 60.63 63.93 65.29 65.96 65.63 66.26 66.10 66.51 66.52 66.16 67.25 68.14 68.68 68.36 67.85 67.93 67.32 67.36 66.68 66.29 67.34 69.73 72.08 73.03 72.86 72.60 72.00 70.40 71.03 71.20 71.15 70.68 70.70 70.47 69.92 68.70 67.68 66.46 66.16 66.14 65.23
54.62 56.94 59.30 62.20 63.85 65.64 65.79 66.54 66.25 66.70 66.54 66.01 66.09 65.14 63.99 62.81 63.11 63.22 63.85 64.11 64.43 64.14 64.40 65.41 67.09 67.82 69.82 71.84 72.65 70.83 70.87 70.72 70.73 70.32 70.28 69.16 66.19 63.72 69.06 65.48 63.51 66.54 65.84 66.13
52.38 59.21 60.85 60.83 64.84 66.63 65.53 65.07 65.73 65.19 64.86 65.34 64.37 62.57 62.71 62.60 63.22 63.18 62.49 63.16 63.50 64.12 64.26 64.90 66.03 66.73 68.24 69.61 70.77 70.84 68.70 67.29 66.77 67.28 67.01 67.17 64.10 58.58 47.92 48.77 47.31 46.62 47.33 54.71
60.13 62.49 63.90 65.66 65.91 66.60 65.48 65.25 65.36 65.25 63.85 62.28 63.23 63.28 62.99 62.44 63.09 59.97 63.18 63.53 63.31 63.63 64.12 65.14 65.92 66.61 68.21 68.85 68.74 68.31 66.85 66.00 65.23 65.54 65.75 64.79 62.31 62.37 61.51 52.47 44.35 43.14 44.46 44.40
62.32 62.30 61.73 64.01 63.57 65.77 65.65 64.98 62.02 62.48 63.01 63.17 63.24 63.65 63.11 61.91 62.30 62.79 62.65 63.00 63.51 63.52 63.93 64.25 64.98 65.98 66.95 66.38 67.10 66.23 65.12 57.84 66.36 66.02 65.92 65.85 65.05 64.89 64.07 60.80 60.62 53.14 45.72 48.50
61.68 62.56 63.77 64.65 64.44 63.76 62.99 61.78 60.98 60.98 61.08 61.08 62.20 61.29 61.19 61.04 61.11 61.85 62.67 63.45 63.47 63.05 63.49 64.79 64.87 65.12 66.58 66.86 66.36 65.83 65.77 66.04 66.71 65.93 65.91 64.07 65.18 64.74 64.73 63.51 59.07 56.42 54.28 49.53
61.47 61.58 61.64 60.43 60.04 60.59 60.86 60.86 59.96 60.11 60.87 61.21 61.00 61.07 61.29 61.45 61.32 61.79 62.39 62.59 61.78 60.93 63.33 65.29 65.01 66.89 67.81 67.55 67.07 66.36 66.08 60.11 62.46 65.61 64.76 65.08 64.18 64.47 63.21 63.25 61.27 58.56 56.53 55.83
57.92 58.14 58.69 58.53 59.17 59.63 59.88 60.01 59.60 59.47 59.69 59.79 60.11 60.77 61.15 61.15 61.39 61.32 61.66 62.95 64.11 64.53 65.64 66.19 65.99 67.16 67.15 67.15 65.91 66.12 65.53 65.16 60.56 65.80 65.19 64.64 64.35 63.87 63.91 63.50 61.70 59.86 58.94 56.95
60.30 60.02 60.31 59.96 59.31 59.34 59.76 60.50 60.97 61.53 61.26 61.94 62.44 62.57 62.22 61.99 61.67 62.36 62.64 63.63 64.53 64.99 65.64 66.16 66.37 66.43 65.95 66.01 65.75 66.23 66.33 65.43 64.49 64.29 64.35 64.21 64.57 64.39 63.94 63.42 61.96 59.41 59.23 54.14
60.78 59.88 60.81 61.02 61.23 61.05 61.05 61.29 61.86 62.44 62.84 62.79 62.23 62.07 62.77 62.67 63.03 63.44 63.72 63.50 63.60 63.88 64.85 64.99 58.52 63.46 64.41 61.31 62.41 65.87 64.98 64.32 64.02 64.32 64.44 59.14 63.10 63.60 63.07 61.76 59.81 59.32 59.44 55.83
57.67 59.09 59.46 59.61 60.26 60.31 59.92 60.92 61.21 61.06 61.89 62.50 62.65 62.29 62.13 62.66 63.16 63.68 64.58 63.60 64.61 64.85 65.88 63.66 64.92 64.76 64.37 61.34 59.21 64.63 64.89 64.68 63.96 63.18 63.09 61.80 62.66 62.61 62.70 57.60 60.06 60.35 59.08 56.07
55.87 56.62 56.85 57.22 57.39 58.59 59.60 60.15 59.86 59.78 60.50 60.82 60.58 60.83 61.58 62.61 63.61 64.17 62.93 61.36 64.71 63.93 64.39 60.73 65.35 64.52 64.41 62.52 62.07 63.92 63.26 63.22 63.19 63.93 62.53 62.80 62.32 61.95 61.54 59.88 58.33 57.22 56.97 54.65
55.75 55.09 55.14 56.08 56.12 56.77 58.53 59.59 59.72 59.70 59.85 60.66 60.82 61.17 60.90 61.22 62.47 63.36 65.05 63.49 64.31 53.97 61.73 63.97 63.37 57.42 61.97 56.59 64.04 61.85 61.58 61.75 61.08 62.19 62.20 62.71 62.53 61.99 60.93 59.92 57.92 57.01 52.27 50.94
55.17 55.57 56.35 56.77 57.20 57.59 58.64 58.78 58.94 59.03 59.40 59.72 59.79 60.81 59.94 60.23 62.00 60.69 60.21 62.97 63.97 58.69 63.63 62.82 54.79 54.75 55.29 61.96 62.78 61.66 60.82 60.84 59.96 59.85 61.37 61.06 61.66 60.22 59.91 59.76 59.17 57.82 53.78 52.98
55.19 56.10 56.86 58.41 59.05 58.47 57.38 57.83 58.64 58.96 59.13 59.66 60.01 60.69 60.34 59.81 59.73 62.12 62.53 54.90 51.93 56.16 61.78 57.88 55.60 52.61 51.11 60.95 60.14 60.01 60.72 61.38 61.01 61.17 59.14 52.06 60.13 58.68 56.22 55.60 53.43 54.38 55.96 54.63
55.41 56.19 55.90 54.84 53.95 53.57 55.42 57.54 58.84 59.10 58.99 58.86 59.18 59.12 59.10 59.11 60.40 60.13 60.76 59.73 51.07 56.28 60.52 48.86 50.98 50.85 59.43 60.02 59.37 58.76 58.93 59.94 59.25 58.26 57.19 57.08 56.56 57.23 59.09 58.67 58.05 57.26 56.30 55.96
57.07 56.16 57.05 57.94 56.99 56.50 56.07 55.56 54.56 56.42 58.08 55.51 57.32 55.53 57.33 58.69 57.36 60.98 61.14 57.79 60.43 54.59 60.40 58.04 58.93 58.73 60.08 59.36 59.13 59.26 58.46 56.68 56.43 56.88 56.31 56.94 56.84 56.85 56.98 57.29 56.42 55.72 55.53 54.99
57.50 52.16 56.94 56.48 57.42 57.50 56.98 55.93 55.48 54.56 54.78 56.94 56.53 56.51 54.08 57.45 56.40 54.35 52.16 56.97 58.13 58.54 59.30 59.32 58.71 55.62 58.37 58.46 58.16 58.54 58.80 57.83 52.51 56.30 56.33 56.19 56.17 55.93 55.75 55.42 55.21 55.38 54.73 54.02

GFSNGP_sfc_wetblb_165.txt.gz
Wetbulb
52.95 53.34 53.49 52.66 52.05 52.20 51.65 52.97 51.57 53.78 54.20 57.57 60.37 61.11 61.77 62.96 64.03 63.44 63.94 67.92 70.85 72.04 74.19 76.96 77.77 77.85 78.28 78.03 78.76 79.48 80.00 79.66 79.92 80.15 80.22 79.68 79.20 78.59 78.62 77.68 77.12 76.63 74.26 74.17
52.15 53.21 53.18 52.24 53.13 53.14 52.85 52.88 53.27 53.86 54.21 59.08 60.49 61.64 61.99 63.08 63.31 63.55 64.47 66.67 69.71 72.90 73.64 75.20 76.30 77.37 77.45 78.35 79.32 79.37 78.86 78.73 79.60 80.19 79.38 79.14 78.63 78.15 78.13 76.31 73.91 74.45 73.83 73.34
50.28 53.36 53.35 50.27 53.47 53.49 53.91 54.55 54.11 52.18 56.02 58.69 58.57 60.22 61.65 62.52 63.39 63.36 63.37 64.99 68.71 72.85 75.34 76.96 75.86 77.70 75.99 77.25 79.03 79.73 79.42 78.58 78.64 79.45 78.89 78.54 77.79 76.73 75.71 73.98 74.20 73.45 73.61 72.64
50.82 53.06 46.48 54.07 57.58 56.62 54.99 55.81 56.93 56.89 57.83 59.40 60.08 61.21 61.93 63.56 63.69 63.86 64.57 65.60 67.93 71.96 74.83 76.62 76.81 77.19 77.97 77.22 78.35 77.56 78.17 78.36 79.28 78.63 77.16 76.72 76.13 74.52 73.57 73.12 73.06 71.84 72.82 72.11
49.20 49.32 52.45 53.76 55.07 55.19 54.62 55.01 58.07 57.63 58.62 59.07 60.24 61.09 61.97 63.62 64.69 65.66 66.81 68.09 70.11 71.51 75.71 76.73 76.63 77.83 78.35 77.69 77.85 78.00 77.96 77.94 76.25 76.67 75.52 74.44 73.37 74.13 74.13 73.33 73.16 72.12 71.81 71.29
51.16 47.97 46.75 54.16 57.05 58.47 58.27 52.45 58.47 58.77 58.81 58.95 60.21 56.60 59.10 66.01 64.51 65.56 69.79 69.63 70.85 73.45 75.30 76.04 77.69 77.45 78.20 77.91 77.44 77.37 77.11 76.44 75.84 75.70 75.51 74.36 74.68 75.33 74.70 73.62 71.75 70.91 70.16 71.73
49.17 48.72 51.60 57.10 58.30 59.43 52.39 54.42 60.12 60.20 60.72 60.17 61.05 62.19 66.78 68.53 71.44 72.03 71.70 72.71 74.08 74.13 74.51 76.07 77.73 78.00 76.97 76.81 76.32 77.00 77.05 76.67 76.54 76.48 75.60 75.24 75.67 74.65 72.44 71.60 71.45 71.34 69.94 71.46
49.18 47.51 46.26 57.60 57.28 54.77 61.00 62.73 62.05 62.39 63.35 63.25 64.74 64.15 69.16 70.77 71.59 72.05 72.57 73.09 73.93 74.29 75.86 77.12 77.52 77.21 76.29 75.74 76.07 75.94 76.11 75.98 76.01 75.91 75.03 74.11 72.96 72.17 71.78 71.45 70.22 70.05 69.93 68.53
50.82 51.01 58.13 59.46 59.59 63.56 64.03 66.35 66.14 67.05 67.30 66.59 65.61 68.62 69.68 70.60 71.40 72.40 72.95 73.91 74.80 74.58 74.86 75.40 75.53 75.39 73.63 75.01 75.59 75.92 75.33 75.24 75.06 73.88 72.72 72.53 71.02 71.68 70.80 70.58 70.12 68.17 67.27 67.70
54.04 56.67 56.83 58.08 60.05 61.04 64.72 66.83 67.23 67.98 67.97 66.83 66.35 68.83 69.73 70.90 71.49 71.91 72.37 72.32 72.98 72.79 72.08 72.70 73.19 73.63 73.81 74.19 74.59 74.13 73.61 73.55 73.94 73.28 72.44 72.84 71.69 71.14 70.22 68.46 68.29 66.05 65.70 67.40
54.81 56.65 57.92 58.07 58.94 60.19 62.12 66.59 67.68 68.27 67.81 67.66 68.78 69.76 70.70 70.91 71.05 71.02 70.76 70.25 69.62 68.42 68.28 68.96 70.91 72.26 73.27 74.07 74.57 73.46 73.27 72.91 72.46 70.59 71.52 67.88 61.10 58.78 66.55 58.95 58.84 66.09 67.57 67.90
52.48 58.45 58.43 59.89 60.95 61.22 63.01 65.90 67.66 67.33 67.54 69.00 70.04 69.59 68.49 66.94 66.58 65.82 65.56 66.10 65.95 66.15 66.49 66.51 67.37 68.37 71.05 72.26 72.48 71.88 70.97 71.16 71.03 70.87 69.50 66.85 64.28 62.18 48.71 49.93 49.35 50.24 51.12 60.21
56.94 61.25 63.46 64.73 65.19 62.88 64.40 67.32 68.06 68.12 68.53 67.47 67.43 66.42 65.46 64.73 65.37 61.94 65.28 65.46 65.66 65.42 66.22 66.96 67.19 67.43 68.39 69.33 70.06 69.79 68.50 68.85 67.63 66.72 67.55 66.33 66.36 64.32 61.43 54.47 47.55 43.57 45.13 45.48
58.73 60.82 61.05 64.31 64.14 67.14 67.81 67.98 65.77 68.01 67.15 66.12 65.68 65.65 65.31 64.32 64.73 65.57 65.44 65.45 66.00 66.05 66.14 66.29 66.39 66.55 68.03 68.43 68.66 68.53 68.08 59.66 66.65 67.13 66.53 66.17 65.68 64.65 63.42 61.63 60.37 57.08 47.18 47.57
58.88 61.95 62.24 64.38 66.51 67.28 67.97 67.09 65.09 64.31 64.72 64.74 65.17 64.49 64.46 64.11 63.81 63.91 64.77 64.86 65.35 65.11 65.27 65.71 65.78 66.46 68.21 68.12 67.30 66.23 65.65 65.64 66.15 65.89 66.34 65.57 66.36 66.02 65.62 64.06 62.07 58.81 53.80 49.23
58.68 60.89 63.33 63.33 65.80 66.57 65.45 64.08 63.67 63.51 63.72 63.42 62.96 63.39 63.61 64.14 64.06 64.23 64.24 64.61 63.52 63.43 65.41 65.43 65.46 66.79 67.62 67.48 67.06 66.11 66.11 62.37 63.86 65.73 64.79 64.60 64.10 64.07 65.55 64.06 60.58 58.67 56.63 54.99
56.42 57.18 62.42 63.33 65.17 65.19 63.57 64.05 63.27 63.28 63.57 63.57 63.81 63.81 63.21 62.73 62.99 62.98 63.58 64.96 64.99 65.44 66.72 66.41 66.41 67.21 67.11 67.39 66.59 65.41 64.93 64.58 62.28 64.81 63.49 64.43 62.92 63.91 64.03 64.80 59.91 59.50 59.04 57.20
57.98 56.60 63.61 63.95 63.21 62.85 62.79 62.99 62.90 62.81 62.38 62.94 63.36 63.35 62.90 63.22 63.01 63.42 63.94 65.04 65.30 65.59 66.60 66.86 67.06 66.94 66.76 66.37 66.35 65.87 64.64 65.43 64.09 64.12 64.35 63.67 63.18 64.08 63.13 62.36 62.20 59.64 59.44 54.56
58.34 58.48 61.32 61.68 62.61 62.51 62.24 63.00 63.30 63.79 64.00 64.19 64.00 63.47 63.87 63.76 63.58 63.48 64.08 64.09 64.42 64.55 65.62 66.50 61.31 64.87 65.92 63.10 62.97 64.44 64.39 64.74 64.23 63.96 64.78 61.07 64.20 63.26 63.11 63.79 62.72 61.46 58.48 56.51
58.86 60.22 60.74 61.02 62.38 62.38 62.71 63.46 63.66 63.38 63.87 64.05 63.86 63.65 63.20 63.47 63.98 63.88 64.57 63.61 65.12 65.07 66.48 64.82 65.61 66.04 66.04 62.41 60.85 64.39 64.56 64.15 63.72 63.43 63.84 63.68 62.94 62.69 62.14 57.83 61.71 60.67 58.59 58.05
56.59 58.87 60.04 60.87 61.03 61.72 61.91 62.09 61.66 61.20 61.74 62.96 63.07 62.94 63.58 64.25 64.15 64.55 63.75 63.02 66.11 65.24 65.65 61.66 65.36 64.74 65.26 63.60 62.05 63.64 63.41 63.39 63.98 63.50 62.55 62.19 62.96 62.76 60.86 60.46 60.89 58.91 58.19 54.82
55.42 55.79 56.68 57.84 58.83 59.61 60.71 61.39 61.34 61.28 61.57 61.80 62.18 62.61 62.65 62.95 63.84 63.98 65.09 64.40 65.44 55.07 63.36 64.08 63.41 58.51 62.81 58.79 63.41 63.22 63.31 62.99 61.53 61.64 62.40 61.78 63.72 62.82 61.26 61.23 60.67 59.37 57.18 58.39
55.51 56.34 56.90 57.53 57.75 58.39 59.17 59.41 59.99 60.84 60.91 61.21 61.59 62.00 62.68 61.95 62.79 61.18 61.14 65.40 65.09 61.19 64.15 62.14 55.81 56.08 56.19 62.21 62.33 62.47 62.09 60.63 60.73 62.45 61.44 62.24 63.34 62.22 60.41 59.72 59.70 60.31 58.77 56.00
55.84 57.54 58.22 58.73 58.89 58.60 58.17 59.40 59.34 60.60 61.21 61.65 61.41 62.37 62.49 60.65 61.82 63.46 64.17 56.46 53.95 58.29 62.37 59.39 56.98 53.86 50.81 61.79 61.94 61.59 60.20 61.31 60.60 60.76 59.79 53.74 61.30 61.49 61.83 61.29 59.29 59.97 57.10 53.26
55.04 56.15 56.29 56.31 56.16 56.83 58.88 59.45 59.45 60.09 60.62 61.21 61.41 61.49 61.61 62.19 60.98 62.75 63.15 62.55 53.83 58.07 61.09 51.36 52.86 52.79 60.09 60.86 60.53 60.85 60.31 60.30 60.82 60.41 61.24 61.70 60.39 59.97 59.68 59.59 58.98 58.10 57.37 57.27
57.36 56.05 56.85 58.40 56.49 56.14 55.93 56.89 57.47 58.09 58.87 57.91 59.05 60.12 60.74 61.56 62.08 63.03 62.31 58.42 60.16 56.56 59.32 59.07 59.73 59.93 60.34 59.97 59.90 59.52 59.26 58.81 58.51 59.32 59.19 59.81 59.60 58.83 58.34 58.14 58.57 58.78 58.39 57.79
57.79 51.82 56.79 57.22 56.67 56.44 56.62 56.20 55.67 56.03 57.81 58.16 57.49 58.54 59.47 60.83 59.34 60.20 54.39 61.09 61.05 60.32 57.99 59.86 59.66 57.66 60.75 59.47 59.08 59.31 58.98 58.37 52.33 58.07 58.54 59.00 59.07 59.16 59.20 59.29 58.57 57.83 57.29 56.62

GFSNGP_sfc_wetblb_168.txt.gz
Wetbulb
53.30 53.39 52.98 52.03 51.21 51.32 51.57 53.31 50.75 53.51 54.79 58.89 61.27 63.55 63.07 65.14 67.63 67.71 68.62 70.41 72.75 75.66 78.38 80.07 78.63 76.66 76.09 75.63 75.19 76.56 77.62 78.36 78.70 79.72 80.59 80.59 80.19 80.03 80.23 79.70 78.70 74.90 73.70 73.10
52.41 53.72 52.95 51.47 52.81 52.31 51.96 51.94 52.86 53.39 54.29 59.87 61.95 62.30 63.05 66.17 66.29 67.73 70.56 68.99 71.75 74.67 76.79 78.69 80.75 80.09 79.18 78.86 78.45 78.61 77.84 78.36 79.38 79.82 79.76 79.68 79.54 78.86 78.49 78.42 77.06 76.15 72.38 72.61
50.47 53.31 52.29 49.15 52.11 52.83 53.41 54.35 53.21 51.55 56.39 59.44 59.48 62.09 64.77 65.75 65.94 66.08 66.54 68.33 70.93 74.27 76.12 78.28 78.89 79.58 78.77 80.03 81.08 79.83 78.90 78.84 79.35 79.75 79.39 79.24 78.72 78.21 78.31 77.13 76.51 75.27 73.88 72.81
50.35 53.12 45.63 53.19 56.19 55.26 54.41 55.50 57.17 57.04 58.56 61.01 62.40 62.96 62.49 64.99 67.22 68.12 68.47 71.30 73.68 74.36 76.55 77.87 77.97 78.79 79.36 78.67 79.29 78.89 78.73 78.47 79.21 79.35 78.80 79.08 78.72 78.44 77.79 76.15 74.79 74.44 73.75 73.48
49.48 49.49 52.25 53.50 55.93 54.87 54.81 55.35 58.31 57.64 59.86 58.58 60.76 60.57 62.31 66.17 69.57 71.39 72.07 74.80 75.31 74.86 78.88 78.06 77.20 78.58 78.26 78.06 78.24 77.92 77.94 78.68 79.15 79.43 78.77 78.30 77.26 76.80 75.61 73.85 73.23 72.36 72.50 72.12
51.04 47.63 45.81 55.10 57.82 58.24 57.88 53.00 60.87 59.98 61.14 59.23 61.09 56.60 60.04 71.64 68.05 68.80 72.99 72.59 73.72 73.43 77.48 78.33 79.16 78.93 78.34 77.89 77.73 77.69 78.36 79.08 78.75 77.86 76.60 74.08 74.36 74.49 75.09 74.40 72.39 70.75 72.88 70.56
50.27 49.33 51.51 57.26 58.56 59.44 52.31 54.84 59.90 59.76 61.83 61.57 60.67 63.83 72.51 70.13 72.59 75.07 75.04 74.86 74.43 76.89 76.54 78.17 79.27 78.50 77.91 78.24 77.78 78.67 77.40 77.30 75.85 76.43 74.46 73.41 73.85 75.30 72.44 70.35 70.71 70.89 69.48 69.93
50.28 48.38 47.02 58.59 57.92 55.44 62.82 65.88 63.10 63.40 63.51 66.59 66.46 68.34 67.90 71.57 72.95 73.10 73.17 73.60 74.81 76.53 76.89 78.47 78.95 78.79 77.45 75.89 76.63 77.32 76.86 75.92 75.47 74.27 73.60 74.78 72.75 70.65 71.24 70.90 69.86 69.43 70.06 68.50
51.69 50.96 61.54 59.72 61.36 63.10 63.57 64.15 66.01 68.78 67.25 67.54 66.26 68.33 71.11 72.20 73.27 74.01 73.96 74.64 76.40 76.94 77.29 78.39 78.99 77.34 76.71 76.40 76.62 75.88 75.62 75.62 75.05 75.28 74.65 72.36 70.64 71.46 70.69 71.81 69.51 68.36 67.52 66.87
52.73 56.52 57.87 59.91 60.61 61.77 62.51 63.01 66.48 67.19 67.39 67.29 66.08 68.85 70.52 72.01 72.65 73.92 74.99 75.05 75.89 75.91 75.10 73.68 74.01 74.29 75.78 76.49 76.83 75.68 74.99 73.91 73.36 72.99 72.48 72.95 72.19 71.72 70.71 69.59 70.08 68.74 66.57 66.39
55.29 58.43 57.85 60.35 59.87 61.17 62.01 62.93 62.51 66.28 67.07 66.98 66.86 69.60 70.71 72.39 73.55 73.70 73.98 73.87 74.02 72.88 72.63 72.94 73.89 74.02 74.64 75.21 75.34 73.83 74.00 73.13 71.79 71.57 71.74 66.12 61.09 62.41 68.45 58.24 61.24 66.66 67.33 66.40
52.34 56.55 58.23 61.10 63.26 62.13 61.62 61.54 62.42 65.13 67.22 67.88 68.70 70.92 72.25 72.07 72.48 72.36 71.42 71.67 70.97 71.24 71.95 72.60 73.46 73.98 74.87 75.58 75.20 73.64 72.57 71.95 71.39 71.41 68.70 65.71 62.25 57.67 49.18 49.65 47.75 49.78 52.14 61.33
54.53 56.92 57.85 60.44 63.73 65.51 65.24 65.86 63.10 65.93 68.35 68.43 71.83 72.04 71.05 69.28 68.86 64.11 68.02 67.97 67.50 67.77 68.44 69.20 69.86 70.72 73.03 73.83 74.01 73.81 72.40 71.67 70.36 68.90 69.46 66.98 63.23 61.69 56.88 50.76 45.22 43.62 44.55 44.28
55.64 56.77 56.94 60.03 60.15 63.97 66.32 67.72 65.04 67.92 70.06 70.04 68.89 68.53 67.59 66.12 66.32 66.46 66.53 66.96 67.61 67.61 67.91 68.42 67.93 67.80 69.52 70.50 70.58 69.70 68.18 60.75 67.91 67.76 67.88 66.94 67.41 63.88 61.33 59.90 55.32 52.86 45.59 45.22
54.14 57.64 59.16 60.99 62.48 63.88 64.00 67.15 67.00 67.13 67.18 66.99 67.05 66.48 65.54 65.88 66.23 66.61 67.05 67.45 67.26 67.26 66.96 67.15 66.77 67.43 68.68 68.01 67.61 67.30 65.60 65.11 65.99 66.94 66.89 65.69 67.09 64.87 63.32 63.53 58.39 53.34 50.11 47.06
55.43 56.93 58.12 58.57 61.21 64.34 64.01 66.53 66.10 65.83 65.86 65.61 65.83 65.44 66.88 66.30 65.68 65.64 66.31 66.72 65.16 64.67 66.09 66.49 66.94 67.79 69.45 68.62 68.53 67.55 66.63 61.74 63.98 67.01 65.84 66.20 65.67 63.93 63.10 60.92 57.86 55.24 53.45 51.48
53.49 53.82 56.06 57.20 60.01 60.13 60.86 66.42 66.29 65.31 65.40 65.20 65.89 65.90 65.48 65.37 65.23 65.09 65.43 67.21 67.16 66.73 67.02 67.91 67.56 69.14 68.71 68.51 67.59 66.07 64.25 64.67 61.01 65.27 64.17 64.18 64.15 64.00 64.29 63.78 60.26 57.80 57.17 54.28
56.59 57.08 57.59 58.63 60.13 60.45 60.34 65.05 65.11 65.54 64.71 65.54 65.87 65.56 64.70 64.06 63.95 65.08 65.20 65.88 67.04 67.03 67.17 67.82 67.74 67.82 67.58 66.73 67.61 66.32 65.36 63.64 64.39 63.91 62.68 64.20 64.01 62.80 63.34 63.17 60.75 58.95 58.53 53.14
57.36 56.71 59.35 60.62 60.34 60.36 62.33 64.82 62.84 64.35 65.23 64.83 64.42 63.81 65.10 65.11 65.28 65.70 66.10 66.16 66.11 65.74 66.52 67.17 63.13 65.99 66.88 63.83 62.58 64.58 63.37 64.60 63.63 63.70 61.59 59.68 63.15 61.65 64.35 61.88 59.74 58.08 56.63 55.42
57.48 58.96 60.56 62.28 62.02 62.70 62.10 61.47 63.76 63.55 64.50 65.30 65.78 64.99 64.62 64.86 65.39 65.39 66.21 65.73 66.16 66.27 67.01 64.60 65.84 66.59 65.81 64.07 61.16 63.14 63.53 63.00 62.92 62.18 63.49 62.34 63.26 62.79 62.60 58.01 58.90 57.00 56.90 56.53
58.81 61.03 59.35 59.78 60.05 59.98 61.97 62.75 61.40 61.95 63.69 65.54 65.34 64.59 65.12 65.68 66.05 66.11 66.00 63.41 66.16 65.50 65.28 62.59 65.45 64.74 65.47 63.51 61.31 62.13 62.77 63.24 62.94 61.29 61.68 62.66 62.19 62.15 60.98 60.62 59.81 57.99 58.21 58.46
56.93 56.80 57.88 58.13 58.69 59.39 59.50 60.02 62.42 63.17 62.91 64.12 64.87 65.36 64.99 65.04 65.41 65.76 67.17 65.40 65.26 57.76 62.81 63.62 63.57 58.81 61.66 58.74 62.74 63.12 63.23 63.02 62.61 62.40 62.15 62.64 62.17 59.82 60.93 60.80 58.30 59.49 56.90 56.11
56.63 56.26 57.29 57.17 56.61 57.12 58.84 59.22 60.18 60.88 61.61 63.37 63.66 64.11 63.35 62.88 63.56 62.38 62.09 65.51 64.61 60.23 63.83 61.79 56.30 57.18 56.87 61.64 63.27 62.54 62.35 61.80 61.63 62.26 62.16 62.47 62.34 60.17 59.62 60.64 60.14 59.07 58.23 58.07
55.54 55.75 56.47 56.99 57.42 57.20 56.72 58.31 59.60 60.76 61.98 62.42 63.48 63.01 63.14 61.31 62.64 63.86 62.07 55.43 53.99 59.75 61.53 57.58 56.05 54.95 51.19 62.43 62.35 62.09 61.43 61.11 61.27 61.43 61.57 54.08 61.15 62.54 60.93 59.89 59.24 58.73 59.02 55.32
54.10 54.73 54.90 55.39 55.54 55.42 57.16 60.09 60.25 61.03 60.85 61.41 62.00 63.35 63.06 62.79 62.07 62.82 62.52 60.34 54.86 58.55 60.08 52.20 54.08 54.00 59.97 61.47 62.11 61.14 61.13 61.17 60.97 60.94 59.46 59.57 59.60 59.29 58.76 59.13 59.31 59.76 57.27 56.42
54.70 55.32 55.44 55.55 55.18 56.34 56.48 57.20 58.12 58.27 58.78 57.79 58.73 59.66 60.44 62.07 61.84 62.48 63.02 60.44 61.55 57.00 60.06 59.17 60.54 59.48 60.67 60.35 60.73 61.13 60.13 59.91 60.57 60.54 59.71 59.31 58.31 60.41 60.23 59.97 58.99 58.00 57.55 57.56
55.09 51.39 56.99 55.69 57.01 58.10 56.72 56.66 56.85 57.03 57.40 57.71 57.29 58.96 59.75 59.99 59.58 59.37 55.68 60.12 60.09 58.52 59.66 59.77 59.62 57.96 58.49 59.82 59.49 59.74 59.13 57.93 52.54 59.04 59.71 59.83 60.70 57.60 59.24 58.48 58.13 59.77 59.28 58.83

GFSNGP_sfc_wetblb_171.txt.gz
Wetbulb
49.37 50.50 50.67 48.71 48.37 48.39 45.74 44.99 44.24 46.83 49.20 50.42 54.05 57.53 59.01 60.04 59.46 59.59 60.54 62.51 63.98 65.53 66.44 69.30 68.02 68.02 68.90 69.87 71.25 71.98 72.36 75.04 75.69 76.42 77.28 77.27 77.53 77.26 77.26 77.05 76.78 75.76 73.02 71.17
47.37 50.66 50.43 49.18 50.39 49.24 48.58 48.25 46.56 48.15 48.00 52.66 55.55 56.32 58.45 60.34 61.40 60.84 60.85 64.44 66.32 66.87 67.76 69.20 71.57 70.19 69.47 69.13 69.80 70.98 72.51 72.70 75.82 75.89 77.14 76.68 77.07 76.85 77.00 76.63 74.47 73.18 71.37 70.65
41.60 48.81 49.20 46.18 49.62 49.95 49.33 50.01 49.02 45.38 48.43 52.11 53.29 54.95 57.84 61.15 61.02 60.59 61.28 61.72 65.19 66.73 68.08 69.05 71.96 72.84 73.05 72.16 71.41 71.88 72.38 74.42 76.10 76.28 76.24 76.64 76.30 76.37 75.87 75.79 74.43 71.39 71.22 71.48
42.82 45.70 40.48 47.96 53.14 52.82 51.04 52.72 51.35 50.66 52.61 54.36 54.23 55.46 57.42 56.81 58.11 61.02 62.24 62.74 64.13 68.33 69.77 71.31 72.81 72.01 73.54 75.29 74.42 74.12 74.40 75.68 76.65 76.73 76.29 75.93 75.44 75.34 74.85 74.22 73.41 71.98 71.29 70.88
42.09 42.08 46.84 50.39 53.27 51.40 49.28 49.74 53.75 52.92 54.37 56.18 57.29 54.69 52.95 59.39 60.80 60.85 61.80 63.63 65.97 70.20 71.25 72.02 72.58 73.19 73.52 74.33 74.89 74.95 74.98 75.87 76.30 76.26 75.76 75.38 74.82 74.04 73.42 72.80 72.26 70.49 70.17 68.44
43.51 40.43 40.28 48.75 55.87 56.85 55.08 46.84 57.08 56.33 56.04 55.38 55.28 49.80 52.88 58.71 60.38 63.92 62.54 63.70 63.66 67.04 73.00 72.28 73.33 73.70 73.48 73.69 73.96 74.12 75.23 76.31 76.62 76.26 75.35 74.38 74.53 73.43 72.53 72.01 71.06 70.45 68.20 67.30
43.95 42.21 46.71 54.09 56.21 57.34 46.48 49.27 61.43 58.54 56.70 56.08 53.95 55.51 59.57 62.83 66.61 66.07 66.63 66.26 66.51 71.78 73.16 73.37 74.07 74.39 73.75 73.69 73.48 75.72 75.81 75.22 74.44 73.35 72.70 73.23 73.51 72.68 71.53 69.91 68.91 67.61 67.05 66.47
44.25 42.40 41.11 57.36 56.88 52.36 53.43 57.55 62.26 62.97 62.17 61.34 61.95 60.92 60.31 66.30 66.03 67.22 67.24 70.96 73.10 73.31 73.77 74.06 74.70 74.79 74.08 74.25 74.96 74.55 73.92 73.32 72.72 71.63 72.11 72.64 71.10 70.24 68.71 67.99 66.65 65.89 65.78 64.88
46.57 47.22 53.60 54.77 53.76 55.82 56.74 57.15 59.28 61.69 63.13 63.12 62.75 66.82 67.19 66.54 68.30 68.45 70.81 73.16 73.88 74.33 74.68 74.85 75.31 74.86 73.39 73.57 73.94 73.48 73.15 72.45 71.14 71.12 70.75 69.82 69.09 67.95 68.44 67.26 66.12 65.16 65.54 63.08
48.24 51.12 53.09 53.66 55.99 56.45 56.26 56.83 58.25 60.23 62.84 63.24 62.46 66.90 67.32 67.99 69.47 70.86 72.05 72.56 72.13 71.50 70.99 71.13 72.61 73.18 73.42 73.35 73.81 73.58 71.42 71.56 71.24 70.07 69.21 69.29 69.29 68.33 67.50 66.60 65.40 65.33 64.50 63.92
49.67 51.71 54.10 55.68 55.74 57.85 60.66 58.86 58.13 58.63 61.39 63.57 65.69 67.53 68.98 69.60 69.77 70.12 70.47 70.58 70.91 70.53 70.36 70.40 71.94 72.88 73.41 73.43 73.03 71.76 70.63 70.57 70.18 69.55 68.13 59.85 53.69 51.51 60.83 53.64 55.08 64.82 64.19 63.01
43.63 48.64 49.52 50.89 54.24 58.72 60.90 61.47 62.42 61.28 58.78 64.67 67.62 68.78 69.35 68.90 69.47 69.42 69.19 69.69 69.71 69.62 69.67 69.90 71.22 71.72 72.34 72.04 71.39 70.65 69.39 68.40 68.31 67.50 63.39 59.37 57.30 53.66 47.73 46.34 45.29 46.44 52.56 59.16
45.33 50.00 51.40 52.70 53.96 60.44 59.43 60.98 62.31 61.95 61.26 65.12 69.16 69.22 68.66 66.90 65.65 62.93 65.93 65.93 65.86 65.86 66.81 67.87 69.35 69.16 70.59 70.88 70.22 69.34 68.42 67.88 67.55 66.38 65.53 61.64 58.61 55.43 50.87 47.97 45.15 42.85 43.07 44.04
49.07 49.14 48.19 51.42 52.01 58.54 59.07 61.69 62.66 62.69 66.45 68.49 66.82 65.63 64.21 63.52 63.27 63.16 62.92 63.62 64.43 64.43 63.92 63.61 63.88 63.92 65.85 65.41 65.13 63.90 65.14 62.44 66.43 66.62 65.73 62.03 61.32 58.54 53.80 52.25 51.35 48.35 42.80 42.76
48.14 50.00 50.34 53.58 56.09 57.42 59.19 61.80 60.11 62.68 64.43 63.72 63.96 62.79 63.08 61.98 62.08 62.36 63.30 63.95 63.95 63.93 63.15 63.05 62.89 62.26 63.77 64.38 63.62 61.32 61.26 61.30 63.05 64.39 64.48 63.31 63.16 59.42 59.26 54.04 49.22 46.19 44.55 43.08
48.36 50.99 52.22 51.74 54.47 56.39 57.36 59.56 59.55 60.29 62.54 62.51 61.68 62.33 62.69 63.09 62.94 62.92 62.91 63.25 61.95 61.13 61.42 61.95 62.24 63.44 64.40 63.27 62.93 62.50 61.28 61.58 62.61 63.61 62.96 63.24 63.11 61.22 59.27 52.61 49.77 46.94 44.98 43.85
45.57 48.20 51.45 52.08 53.86 54.43 55.99 59.34 60.64 60.88 62.46 61.68 61.70 62.95 62.03 61.58 61.45 61.28 61.25 62.93 62.39 62.30 63.00 62.50 62.19 64.30 64.23 64.01 63.81 62.74 61.82 59.59 60.35 63.84 63.00 62.44 60.96 60.10 56.43 53.35 51.29 49.89 47.79 47.50
48.61 51.94 53.24 53.85 53.69 55.07 58.26 60.24 60.91 62.90 61.53 62.77 62.43 61.90 61.09 60.36 59.77 60.50 62.25 62.50 61.84 62.48 63.61 63.99 63.86 63.70 63.11 62.92 62.19 61.92 59.44 59.04 59.72 60.05 60.76 61.39 61.11 60.89 59.34 55.87 53.73 52.19 49.27 47.98
50.40 51.72 54.56 56.52 56.68 57.47 59.25 60.72 61.57 63.62 62.43 62.31 61.82 60.73 61.15 61.11 61.23 60.92 61.68 62.26 61.71 61.39 61.39 61.56 62.70 63.25 61.41 59.07 58.80 58.28 59.67 59.25 58.77 59.46 60.57 59.21 60.80 60.81 61.43 58.59 56.70 53.87 51.19 48.81
50.46 55.67 57.12 57.46 58.54 60.31 60.67 60.79 61.32 61.04 61.42 61.30 61.01 61.23 60.01 60.59 62.02 61.10 61.95 61.45 62.14 62.34 62.45 60.15 61.82 61.22 60.36 59.29 59.07 56.89 57.37 59.73 60.57 60.34 58.78 59.00 59.53 59.34 59.24 54.73 54.88 53.74 52.36 51.72
55.62 56.66 56.84 59.28 60.50 61.30 60.65 61.47 62.04 61.77 62.32 62.49 61.73 61.43 60.91 61.38 61.90 62.91 60.98 60.29 62.10 61.45 60.10 60.03 62.41 61.80 61.28 59.25 56.96 56.25 58.49 58.76 59.46 58.29 58.56 60.27 60.14 59.70 59.18 54.47 54.12 53.95 53.81 53.30
57.68 57.63 58.03 58.94 57.97 58.40 59.46 60.09 60.56 60.74 61.29 61.99 62.61 62.56 61.78 61.15 61.36 62.13 62.19 60.63 60.80 57.72 59.60 60.68 59.62 59.30 58.06 58.06 56.51 58.62 59.11 59.99 58.87 58.42 58.72 59.21 59.86 59.03 58.78 56.41 55.14 54.95 53.12 52.11
56.11 56.76 57.38 57.49 57.43 57.73 58.83 59.35 59.55 59.73 59.47 59.69 60.04 59.97 60.36 60.59 60.93 60.58 60.45 61.17 60.29 57.73 59.19 57.51 55.90 56.75 57.43 57.22 58.62 58.72 58.41 58.19 58.68 58.96 58.85 58.84 58.62 57.80 56.55 55.65 54.50 54.41 53.67 52.28
53.85 55.46 55.89 57.01 57.84 56.89 55.95 57.34 58.62 59.25 59.00 59.40 58.95 59.38 59.36 59.55 59.65 59.78 58.60 55.81 54.01 57.30 55.79 53.96 53.99 55.66 54.23 57.86 58.32 58.34 57.50 57.12 57.81 57.76 57.94 55.03 58.35 58.48 58.18 56.68 55.31 55.34 54.23 51.92
52.51 53.33 53.92 54.29 54.78 55.21 55.83 56.77 57.80 57.92 58.06 57.94 58.42 59.59 60.24 60.96 59.90 59.17 58.04 56.58 54.70 56.58 55.54 52.25 53.62 53.81 55.33 57.74 58.20 57.55 57.51 57.11 57.14 56.96 57.25 57.27 57.47 56.46 56.32 56.74 57.13 55.63 53.97 51.46
53.25 52.73 53.65 54.47 55.31 54.78 54.86 56.21 55.25 55.49 56.47 56.35 56.62 57.93 59.32 59.73 60.11 60.23 60.01 57.73 58.38 55.93 56.74 54.85 55.81 55.16 56.53 56.99 58.03 57.73 57.39 56.53 56.16 56.85 57.13 58.53 56.41 56.96 57.19 56.74 54.98 52.87 51.67 51.59
53.86 52.60 54.17 53.65 55.00 55.41 54.75 55.73 55.43 55.04 55.29 55.70 54.95 56.63 57.54 58.51 57.37 57.55 57.17 58.15 57.79 56.90 56.39 56.46 56.24 54.50 54.42 55.90 58.49 57.03 55.75 55.10 52.46 56.79 57.76 56.30 58.56 56.37 56.00 54.87 53.94 53.30 52.24 52.12

GFSNGP_sfc_wetblb_174.txt.gz
Wetbulb
46.95 47.09 47.90 45.51 45.26 45.26 41.73 42.26 41.56 43.18 45.54 48.31 53.32 54.98 56.37 56.47 57.37 58.29 59.79 60.15 62.47 63.60 64.07 64.25 66.03 67.43 68.41 68.93 69.15 69.53 71.94 72.59 73.04 73.93 75.11 75.46 75.52 76.19 76.63 75.92 75.64 75.32 72.75 69.63
45.05 48.14 47.59 47.42 48.19 46.42 46.24 45.32 43.06 45.85 45.80 51.17 52.78 54.98 55.03 57.50 57.52 57.52 59.58 60.90 62.64 64.43 64.59 64.59 65.30 65.86 67.69 68.65 68.93 69.75 71.31 72.45 73.55 74.58 75.16 75.65 76.17 76.52 76.69 76.84 74.93 73.36 70.99 70.06
42.52 45.36 45.78 42.42 46.08 47.47 46.15 46.10 46.67 43.02 46.61 48.89 49.95 53.94 55.72 57.24 58.29 57.56 58.91 60.74 61.77 64.15 65.62 67.57 68.26 65.86 64.80 66.16 67.87 69.53 69.85 70.61 73.44 74.62 75.46 75.67 76.66 76.53 76.29 74.45 71.69 71.40 71.55 71.36
38.23 42.90 38.00 46.44 50.30 50.63 49.37 50.10 48.79 46.99 47.79 50.70 50.76 52.06 55.48 55.41 57.72 59.28 59.19 59.78 61.66 62.68 62.94 65.55 69.21 68.84 68.30 67.05 67.26 67.84 68.55 70.97 74.22 75.26 75.56 76.02 76.23 75.44 73.40 72.78 71.94 72.05 70.72 70.31
39.43 40.47 42.49 48.34 50.89 49.09 47.53 47.17 52.42 48.56 50.00 52.02 52.48 52.51 51.19 55.95 56.30 57.99 59.94 61.40 61.63 63.84 65.84 69.43 69.69 71.61 72.83 71.59 70.78 70.75 72.32 73.83 74.88 75.50 75.72 75.28 74.20 73.15 72.38 72.93 71.53 70.60 70.06 67.13
39.48 38.23 37.08 45.05 53.91 55.20 51.60 44.03 55.39 57.52 52.08 52.55 51.77 47.08 49.12 55.86 58.57 60.19 61.91 62.75 64.83 68.13 69.99 70.26 70.53 72.04 73.01 72.38 72.69 72.82 74.41 75.13 75.57 75.72 75.11 74.25 74.22 72.63 71.17 71.35 69.23 69.57 68.03 64.11
39.02 39.10 43.32 51.09 54.92 54.89 44.50 45.30 55.69 59.58 56.52 51.65 51.25 51.89 52.89 57.87 61.52 59.57 60.39 62.10 64.59 70.11 70.17 70.69 70.75 71.70 71.84 71.96 72.15 74.42 75.39 75.29 75.25 75.03 74.48 73.61 71.76 70.92 70.36 69.92 69.70 67.99 65.35 61.62
39.74 38.53 38.43 52.94 53.23 47.89 50.05 52.40 56.75 58.32 59.79 58.95 59.88 56.45 60.93 62.17 62.83 65.31 67.36 68.02 70.92 70.71 70.64 71.40 72.53 72.71 71.58 72.84 74.13 74.20 73.82 72.54 71.60 72.09 72.99 72.27 70.85 70.39 69.90 68.44 66.79 64.87 63.98 60.40
41.34 41.93 48.72 50.96 51.10 53.55 55.19 53.93 54.87 53.77 55.54 60.16 64.13 63.19 63.43 63.94 67.11 69.88 70.73 71.37 71.87 72.18 71.91 72.14 72.82 73.76 72.55 72.98 73.10 72.65 71.74 70.91 70.78 71.05 70.73 71.14 70.71 68.50 66.56 65.80 65.10 63.60 62.58 59.56
42.89 44.71 45.90 49.36 51.06 51.55 53.00 58.04 59.31 60.20 55.81 60.10 62.81 65.03 66.81 69.48 70.21 70.15 69.88 69.99 70.93 71.33 70.71 70.65 72.52 72.98 72.99 72.49 72.61 71.67 70.76 70.58 70.33 69.56 67.10 66.88 66.88 66.17 65.59 64.28 63.71 63.64 61.71 58.27
44.09 44.22 46.58 48.45 49.37 50.66 52.21 57.82 59.21 60.77 60.88 58.57 65.29 67.20 68.00 68.35 68.75 68.77 69.25 69.68 70.35 70.35 70.76 71.38 71.99 71.97 72.77 72.57 72.50 71.31 70.53 69.79 68.30 65.01 59.57 55.53 50.02 53.59 59.02 56.26 59.78 63.53 62.40 59.50
38.22 42.02 43.50 44.71 47.71 49.89 51.69 55.77 57.51 59.51 59.79 60.76 66.22 67.78 68.13 67.31 68.03 68.44 68.23 68.86 68.73 68.96 69.86 70.22 71.23 71.21 71.44 72.20 71.61 70.48 69.29 68.59 65.57 62.15 59.86 58.11 54.83 50.66 47.02 46.14 45.38 48.79 52.78 58.58
39.62 44.23 44.93 46.71 48.76 51.50 50.44 55.77 59.85 59.31 60.53 59.07 67.14 68.34 67.80 65.99 65.94 64.18 68.03 68.30 68.21 68.26 69.52 70.37 70.44 70.55 70.99 71.10 70.14 69.13 68.10 66.97 64.39 62.74 61.34 59.23 57.75 54.68 53.10 48.53 43.99 42.11 44.30 46.55
44.28 45.44 43.67 46.00 45.66 49.19 53.27 57.40 58.72 59.92 62.74 62.89 67.20 65.62 65.17 63.96 63.63 64.47 64.36 64.72 65.88 65.95 66.06 67.67 68.72 67.45 67.57 67.38 67.81 67.38 66.63 61.30 65.50 63.45 61.48 60.35 59.14 55.88 55.61 55.85 53.34 45.89 42.49 42.25
44.33 46.22 44.87 46.81 48.76 50.18 53.99 56.34 57.36 57.77 59.61 61.73 63.93 64.07 63.88 62.33 62.12 61.93 62.33 63.38 63.45 62.93 62.12 63.58 63.43 62.19 62.82 63.47 64.49 65.09 65.23 65.18 65.50 63.92 61.32 59.56 57.77 54.60 52.53 49.42 46.66 44.35 43.93 43.72
44.07 44.31 45.02 45.43 47.24 50.03 52.97 54.09 56.60 57.48 59.24 60.55 60.86 61.34 62.02 62.20 61.88 61.96 62.31 62.70 61.88 60.55 60.34 60.07 60.29 60.64 61.18 60.84 60.29 60.29 60.76 60.41 62.46 63.51 62.53 60.98 58.29 55.95 51.10 46.94 44.41 43.14 42.56 41.94
41.75 41.68 42.80 43.78 47.90 50.06 52.11 55.11 57.97 58.43 59.27 60.10 60.19 62.02 61.77 61.43 61.27 60.93 60.06 60.55 60.54 60.30 60.34 60.53 61.15 61.42 61.32 61.57 60.13 59.82 60.26 61.05 60.92 61.95 62.14 61.86 59.68 56.82 51.65 48.70 46.27 44.17 43.60 44.73
43.99 44.48 46.07 46.46 46.25 49.99 53.08 56.32 57.58 59.08 59.79 60.53 60.99 61.01 61.13 60.73 59.88 59.88 60.26 60.57 60.85 60.37 60.22 60.87 61.89 61.34 61.77 61.78 61.66 60.26 58.49 58.29 60.32 61.25 61.15 60.77 60.29 55.94 52.52 50.12 47.99 46.17 44.63 45.55
45.16 45.21 45.62 46.03 47.73 53.24 54.17 55.48 57.12 59.89 61.37 60.75 59.93 59.35 59.53 60.00 60.84 60.51 60.11 59.86 59.93 59.20 59.82 60.95 61.25 60.54 58.38 58.94 58.33 58.27 57.28 57.98 58.32 58.51 60.56 58.96 59.10 56.47 54.20 52.89 50.79 48.12 46.79 45.72
44.89 45.67 48.22 50.01 55.63 55.28 55.68 57.42 59.38 61.16 60.79 59.79 60.04 59.82 59.18 59.99 60.80 60.72 60.30 59.62 59.95 59.68 59.44 59.39 60.03 58.74 58.05 56.97 57.43 55.51 56.46 57.64 57.02 57.13 58.82 60.25 59.56 58.27 56.60 52.26 52.49 50.00 49.52 46.75
44.16 45.15 46.55 53.81 58.32 58.04 58.28 58.72 59.04 59.57 60.09 60.25 59.21 58.63 59.23 59.39 60.61 61.05 60.32 60.09 59.99 60.10 58.77 59.72 59.27 58.57 57.72 56.76 55.11 54.51 55.55 57.29 57.52 57.75 58.29 58.58 58.69 58.79 56.93 55.56 53.48 51.22 50.83 50.29
45.62 45.65 49.56 56.13 56.41 57.13 58.62 57.60 58.36 59.55 60.33 60.13 60.32 60.43 60.71 60.34 60.70 60.71 61.23 61.46 60.34 56.38 57.25 59.23 59.43 59.20 58.03 56.74 54.94 56.59 56.64 57.02 56.83 57.26 57.88 58.51 59.28 58.44 53.88 52.38 52.17 52.11 52.34 51.22
54.72 56.03 56.71 57.16 56.69 57.45 58.56 58.72 58.08 58.12 58.02 58.10 59.00 59.32 59.62 60.59 60.92 59.82 58.07 59.09 59.39 58.09 59.81 58.93 56.05 55.74 55.65 56.71 56.55 56.15 57.30 57.65 57.90 58.13 57.64 57.75 58.54 57.94 54.57 53.44 52.86 52.09 50.96 49.85
54.85 55.83 56.09 56.50 56.90 55.61 54.73 56.72 58.16 58.42 58.28 58.40 59.35 59.87 59.23 58.19 57.39 58.41 59.77 55.45 52.93 56.25 57.21 55.20 54.72 55.00 54.12 56.76 56.40 56.13 56.44 57.12 57.66 57.85 57.76 53.91 56.05 55.15 53.79 52.99 52.97 53.56 52.99 50.52
53.51 53.70 54.16 54.67 54.47 54.94 55.66 56.45 56.96 56.86 57.08 57.54 57.72 59.40 59.84 60.25 58.70 57.32 58.51 57.31 54.15 54.86 54.47 52.02 53.27 53.24 55.27 56.81 56.94 56.12 55.96 56.18 56.06 56.52 57.27 56.72 55.79 54.48 54.23 54.27 54.71 54.11 53.11 52.83
52.51 52.59 53.03 52.58 53.15 55.10 55.46 55.88 55.14 55.80 55.79 55.13 55.65 57.83 58.97 59.42 58.19 58.19 58.48 56.95 58.18 55.53 54.63 53.21 53.64 53.77 54.34 55.57 56.15 56.28 55.76 55.14 55.04 55.98 55.78 56.05 56.16 55.33 54.99 54.45 53.99 54.01 53.46 52.07
53.12 51.21 52.90 52.95 53.41 53.35 52.84 54.10 53.52 54.15 55.16 55.56 55.21 56.72 57.93 57.94 57.30 58.02 56.95 57.58 56.71 57.34 57.62 55.52 54.90 54.64 54.18 53.70 54.67 56.93 56.22 55.25 53.12 55.75 56.94 56.91 55.95 55.72 56.13 55.66 54.63 53.60 50.82 50.80